OneWeb SL0113

operational
NORAD ID: 48050 Int'l Des: 2021-025 Owner: ONEWEBN Country: UK Constellation: oneweb
LEOCIRCULARPOLARONEWEB_TYPE

Über OneWeb SL0113

Beschreibung wird geladen...

Live-Position

3D-Globus wird geladen...

Nächste Überflüge

Höhenverlauf

Altitude vs Time

uPlot chart will show altitude changes over time

Zweizeiliger Elementsatz

1 48050U 21025J 25305.55729845 .00000100 00000-0 23615-3 0 9998
2 48050 87.9035 5.4104 0001646 102.4989 257.6325 13.13980598223717
Epoch: 1. Nov. 2025 • Age: 19 hours

Aktueller Status

Höhe 1220.4 km
Geschwindigkeit 7.25 km/s
Subsatellitenpunkt 85.24°N, 4.5°W
Startdatum 25. März 2021
Alter 4.6 years
Typ internet

Technische Details

Klassifizierung Payload
Masse 148.00 kg
Trockenmasse 140.00 kg
Gesamtmasse 148.00 kg
Länge 1.30 m
Durchmesser 1.00 m
Spannweite 5.00 m
Form Trapezoid+2 pan
Hersteller ONEWUS
Bus-Typ ARROW
Phasenstatus In Orbit
Besitzer/Staat ONEWEBN/UK

Große Konstellationen

Loading constellations...